Location: *
(13.2257°S, 48.7193°W)
Time: 13:30:00
(UTC+00:00)

In-Cosmos 22 Rocket - Pass Details

Date: 13 February 2026
Orbit: 790 x 885 km, 81.2° (Epoch: 11 March)

Event Time Altitude Azimuth Distance (km) Brightness Sun altitude
Rises 08:23:18 0° 346° (NNW) 3,455 7.1 -12.4°
Reaches altitude 10° 08:25:47 10° 342° (NNW) 2,513 6.3 -11.9°
Maximum altitude 08:31:23 57° 264° (W) 1,011 4.3 -10.6°
Drops below altitude 10° 08:36:55 10° 186° (S) 2,479 6.8 -9.3°
Sets 08:39:22 0° 181° (S) 3,403 7.5 -8.7°
